DLH4F KSEA-KLAX

Flight info

Callsign DLH4F
Flight time 2h 22m
Altitude 38000
Route SUMMA Q9 REBRG J7 DERBB J1 REYES J7 FIM
Aircraft A330/H-SDE2E3FGHIJ1RWXYZ/LB1

Departure

Time 2026-04-20 23:46
Airport Seattle–Tacoma International Airport (KSEA)

Arrival

Time 2026-04-21 02:08
Airport Los Angeles International Airport (KLAX)
Time Latitude Longitude Altitude Speed Heading
2026-04-20 23:33 47.44083 -122.30049 381 ft 0 kts 44°
2026-04-20 23:38 47.44083 -122.30050 380 ft 1 kts 44°
2026-04-20 23:38 47.44056 -122.30087 380 ft 11 kts 57°
2026-04-20 23:38 47.44048 -122.30143 380 ft 0 kts 109°
2026-04-20 23:40 47.44047 -122.30141 380 ft 2 kts 113°
2026-04-20 23:40 47.44014 -122.30075 380 ft 13 kts 132°
2026-04-20 23:40 47.43961 -122.29993 378 ft 14 kts 139°
2026-04-20 23:41 47.43883 -122.29960 376 ft 15 kts 187°
2026-04-20 23:41 47.43805 -122.29989 375 ft 14 kts 200°
2026-04-20 23:41 47.43757 -122.30081 372 ft 15 kts 254°
2026-04-20 23:41 47.43737 -122.30206 369 ft 16 kts 258°
2026-04-20 23:42 47.43726 -122.30331 369 ft 15 kts 266°
2026-04-20 23:42 47.43726 -122.30454 366 ft 15 kts 272°
2026-04-20 23:42 47.43728 -122.30579 365 ft 14 kts 268°
2026-04-20 23:42 47.43664 -122.30638 360 ft 16 kts 167°
2026-04-20 23:43 47.43578 -122.30575 357 ft 17 kts 158°
2026-04-20 23:43 47.43473 -122.30559 350 ft 19 kts 180°
2026-04-20 23:43 47.43352 -122.30559 341 ft 23 kts 181°
2026-04-20 23:43 47.43211 -122.30548 333 ft 23 kts 160°
2026-04-20 23:44 47.43119 -122.30585 325 ft 19 kts 238°
2026-04-20 23:44 47.43133 -122.30726 322 ft 16 kts 301°
2026-04-20 23:44 47.43195 -122.30795 325 ft 11 kts 350°
2026-04-20 23:44 47.43275 -122.30801 331 ft 25 kts 359°
2026-04-20 23:45 47.43531 -122.30800 348 ft 71 kts
2026-04-20 23:45 47.44060 -122.30796 376 ft 117 kts 360°
2026-04-20 23:45 47.44830 -122.30791 402 ft 160 kts
2026-04-20 23:45 47.45845 -122.30782 436 ft 197 kts
2026-04-20 23:46 47.47018 -122.30745 823 ft 205 kts
2026-04-20 23:46 47.48225 -122.30637 1585 ft 199 kts
2026-04-20 23:46 47.49391 -122.30598 2271 ft 198 kts 357°
2026-04-20 23:46 47.50574 -122.30653 2773 ft 208 kts 358°
2026-04-20 23:47 47.51814 -122.30695 3246 ft 220 kts 353°
2026-04-20 23:47 47.53226 -122.30872 3291 ft 257 kts 357°
2026-04-20 23:47 47.54808 -122.30930 3999 ft 268 kts 358°
2026-04-20 23:47 47.56441 -122.30955 4926 ft 271 kts 359°
2026-04-20 23:48 47.58096 -122.30833 5652 ft 280 kts 12°
2026-04-20 23:48 47.59620 -122.29879 6386 ft 286 kts 37°
2026-04-20 23:48 47.60816 -122.28003 7236 ft 286 kts 62°
2026-04-20 23:48 47.61387 -122.25660 8056 ft 284 kts 85°
2026-04-20 23:49 47.61305 -122.23161 8832 ft 283 kts 103°
2026-04-20 23:49 47.60931 -122.20722 9624 ft 284 kts 106°
2026-04-20 23:49 47.60290 -122.18398 10350 ft 283 kts 126°
2026-04-20 23:49 47.59101 -122.16631 10996 ft 285 kts 148°
2026-04-20 23:50 47.57622 -122.15427 11762 ft 283 kts 158°
2026-04-20 23:50 47.55987 -122.14838 12376 ft 288 kts 174°
2026-04-20 23:50 47.54399 -122.14661 12758 ft 298 kts 176°
2026-04-20 23:50 47.52675 -122.14569 13317 ft 302 kts 178°
2026-04-20 23:51 47.50951 -122.14516 14274 ft 293 kts 178°
2026-04-20 23:51 47.49245 -122.14477 14824 ft 297 kts 179°
2026-04-20 23:51 47.47516 -122.14445 15313 ft 302 kts 179°
2026-04-20 23:51 47.37493 -122.14259 18112 ft 306 kts 180°
2026-04-20 23:52 47.26202 -122.14071 19483 ft 317 kts 180°
2026-04-20 23:52 47.14368 -122.13855 21113 ft 326 kts 180°
2026-04-20 23:52 47.02536 -122.13648 22674 ft 333 kts 180°
2026-04-20 23:52 46.90079 -122.13424 24298 ft 338 kts 180°
2026-04-20 23:53 46.77608 -122.13191 26031 ft 341 kts 182°
2026-04-20 23:53 46.64960 -122.12988 27333 ft 346 kts 182°
2026-04-20 23:53 46.51737 -122.12783 26714 ft 359 kts 182°
2026-04-20 23:53 46.43765 -122.12642 26831 ft 367 kts 182°
2026-04-20 23:54 46.41449 -122.12601 26896 ft 376 kts 182°
2026-04-20 23:54 46.39037 -122.12563 26873 ft 386 kts 182°
2026-04-20 23:54 46.36578 -122.12408 26869 ft 398 kts 175°
2026-04-20 23:54 46.34015 -122.11785 26892 ft 408 kts 174°
2026-04-20 23:55 46.31420 -122.11160 26880 ft 417 kts 174°
2026-04-20 23:55 46.28782 -122.10523 26872 ft 426 kts 174°
2026-04-20 23:55 46.26034 -122.09863 26878 ft 434 kts 174°
2026-04-20 23:55 46.23323 -122.09214 26873 ft 441 kts 173°
2026-04-20 23:56 46.20557 -122.08549 26901 ft 447 kts 174°
2026-04-20 23:56 46.17816 -122.07895 26960 ft 451 kts 173°
2026-04-20 23:56 46.15027 -122.07243 27208 ft 450 kts 174°
2026-04-20 23:56 46.12302 -122.06638 27345 ft 451 kts 174°
2026-04-20 23:57 46.09505 -122.06062 27544 ft 451 kts 175°
2026-04-20 23:57 46.06730 -122.05543 27673 ft 452 kts 176°
2026-04-20 23:57 46.03947 -122.05084 27817 ft 452 kts 177°
2026-04-20 23:57 46.01197 -122.04584 27510 ft 443 kts 175°
2026-04-20 23:58 45.98574 -122.03784 26639 ft 442 kts 167°
2026-04-20 23:58 45.95999 -122.02901 26926 ft 412 kts 172°
2026-04-20 23:58 45.93489 -122.02183 27032 ft 411 kts 173°
2026-04-20 23:58 45.90918 -122.01531 26759 ft 422 kts 173°
2026-04-20 23:59 45.88341 -122.00899 26933 ft 423 kts 173°
2026-04-20 23:59 45.85693 -122.00262 26949 ft 426 kts 173°
2026-04-20 23:59 45.83090 -121.99644 26827 ft 424 kts 174°
2026-04-20 23:59 45.80471 -121.99022 26883 ft 419 kts 174°
2026-04-21 00:00 45.77883 -121.98413 26899 ft 420 kts 174°
2026-04-21 00:00 45.75265 -121.97796 26879 ft 419 kts 174°
2026-04-21 00:00 45.72710 -121.97195 26870 ft 418 kts 174°
2026-04-21 00:00 45.70073 -121.96574 26876 ft 419 kts 174°
2026-04-21 00:01 45.67463 -121.95962 26876 ft 418 kts 174°
2026-04-21 00:01 45.64892 -121.95359 26876 ft 418 kts 174°
2026-04-21 00:01 45.62280 -121.94744 26871 ft 418 kts 174°
2026-04-21 00:01 45.59721 -121.94146 26874 ft 418 kts 174°
2026-04-21 00:02 45.57127 -121.93540 26872 ft 418 kts 174°
2026-04-21 00:02 45.54544 -121.92937 26874 ft 417 kts 174°
2026-04-21 00:02 45.52010 -121.92343 26877 ft 415 kts 174°
2026-04-21 00:02 45.49467 -121.91750 26878 ft 416 kts 174°
2026-04-21 00:03 45.46884 -121.91150 26882 ft 416 kts 174°
2026-04-21 00:03 45.44349 -121.90556 26882 ft 416 kts 174°
2026-04-21 00:03 45.41719 -121.89946 26883 ft 416 kts 174°
2026-04-21 00:03 45.39162 -121.89352 26882 ft 415 kts 174°
2026-04-21 00:04 45.36599 -121.88755 26889 ft 414 kts 174°
2026-04-21 00:04 45.34066 -121.88167 26886 ft 416 kts 174°
2026-04-21 00:04 45.31502 -121.87574 26890 ft 416 kts 174°
2026-04-21 00:04 45.28959 -121.86983 26888 ft 415 kts 174°
2026-04-21 00:05 45.26435 -121.86400 26895 ft 414 kts 174°
2026-04-21 00:05 45.23895 -121.85814 26897 ft 415 kts 174°
2026-04-21 00:05 45.21381 -121.85231 26895 ft 414 kts 174°
2026-04-21 00:05 45.18829 -121.84644 26892 ft 414 kts 174°
2026-04-21 00:06 45.16313 -121.84063 26891 ft 414 kts 174°
2026-04-21 00:06 45.13760 -121.83476 26891 ft 414 kts 174°
2026-04-21 00:06 45.11257 -121.82896 26886 ft 414 kts 174°
2026-04-21 00:06 45.08776 -121.82330 26889 ft 413 kts 174°
2026-04-21 00:07 45.06312 -121.81760 26885 ft 414 kts 174°
2026-04-21 00:07 45.03854 -121.81197 26883 ft 412 kts 174°
2026-04-21 00:07 45.01372 -121.80627 26880 ft 413 kts 174°
2026-04-21 00:07 44.98894 -121.80061 26883 ft 414 kts 174°
2026-04-21 00:08 44.96357 -121.79479 26887 ft 414 kts 174°
2026-04-21 00:08 44.93881 -121.78914 26884 ft 412 kts 174°
2026-04-21 00:08 44.91414 -121.78348 26882 ft 412 kts 174°
2026-04-21 00:08 44.88902 -121.77778 26887 ft 413 kts 174°
2026-04-21 00:09 44.86404 -121.77204 26901 ft 412 kts 174°
2026-04-21 00:09 44.83899 -121.76632 26905 ft 411 kts 174°
2026-04-21 00:09 44.81395 -121.76064 26905 ft 411 kts 174°
2026-04-21 00:09 44.78866 -121.75487 26902 ft 413 kts 174°
2026-04-21 00:10 44.76317 -121.74910 26909 ft 412 kts 174°
2026-04-21 00:10 44.73779 -121.74334 26908 ft 411 kts 173°
2026-04-21 00:10 44.71236 -121.73754 26908 ft 412 kts 174°
2026-04-21 00:10 44.68677 -121.73174 26908 ft 411 kts 174°
2026-04-21 00:11 44.66102 -121.72591 26909 ft 409 kts 174°
2026-04-21 00:11 44.63590 -121.72022 26903 ft 410 kts 174°
2026-04-21 00:11 44.61012 -121.71440 26906 ft 410 kts 174°
2026-04-21 00:11 44.58486 -121.70869 26905 ft 412 kts 174°
2026-04-21 00:12 44.55933 -121.70292 26907 ft 412 kts 174°
2026-04-21 00:12 44.53359 -121.69714 26906 ft 410 kts 174°
2026-04-21 00:12 44.50810 -121.69136 26902 ft 411 kts 174°
2026-04-21 00:12 44.48296 -121.68572 26907 ft 408 kts 174°
2026-04-21 00:13 44.45787 -121.68008 26902 ft 409 kts 174°
2026-04-21 00:13 44.43252 -121.67437 26908 ft 411 kts 174°
2026-04-21 00:13 44.40699 -121.66866 26911 ft 410 kts 174°
2026-04-21 00:13 44.38170 -121.66294 26911 ft 409 kts 174°
2026-04-21 00:14 44.35640 -121.65729 26912 ft 409 kts 174°
2026-04-21 00:14 44.33122 -121.65165 26915 ft 408 kts 174°
2026-04-21 00:14 44.30577 -121.64575 26914 ft 407 kts 173°
2026-04-21 00:14 44.28067 -121.63992 26916 ft 408 kts 174°
2026-04-21 00:15 44.25543 -121.63406 26916 ft 408 kts 174°
2026-04-21 00:15 44.22979 -121.62811 26914 ft 410 kts 174°
2026-04-21 00:15 44.20443 -121.62225 26915 ft 409 kts 174°
2026-04-21 00:15 44.17901 -121.61638 26914 ft 408 kts 174°
2026-04-21 00:16 44.15355 -121.61043 26913 ft 408 kts 174°
2026-04-21 00:16 44.12788 -121.60453 26913 ft 410 kts 174°
2026-04-21 00:16 44.10231 -121.59866 26914 ft 409 kts 174°
2026-04-21 00:16 44.07681 -121.59274 26914 ft 408 kts 173°
2026-04-21 00:17 44.05150 -121.58691 26917 ft 407 kts 174°
2026-04-21 00:17 44.02569 -121.58097 26920 ft 406 kts 173°
2026-04-21 00:17 44.00019 -121.57510 26919 ft 408 kts 174°
2026-04-21 00:17 43.97424 -121.56912 26920 ft 407 kts 173°
2026-04-21 00:18 43.94915 -121.56336 26917 ft 409 kts 174°
2026-04-21 00:18 43.92349 -121.55750 26920 ft 409 kts 173°
2026-04-21 00:18 43.89811 -121.55164 26910 ft 407 kts 174°
2026-04-21 00:18 43.87296 -121.54588 26931 ft 407 kts 174°
2026-04-21 00:19 43.84732 -121.54002 26938 ft 407 kts 174°
2026-04-21 00:19 43.82165 -121.53415 26926 ft 408 kts 174°
2026-04-21 00:19 43.79620 -121.52834 26927 ft 408 kts 174°
2026-04-21 00:19 43.77047 -121.52244 26922 ft 408 kts 174°
2026-04-21 00:20 43.74499 -121.51666 26924 ft 408 kts 174°
2026-04-21 00:20 43.71933 -121.51078 26922 ft 409 kts 174°
2026-04-21 00:20 43.69391 -121.50502 26921 ft 407 kts 174°
2026-04-21 00:20 43.66825 -121.49915 26916 ft 408 kts 174°
2026-04-21 00:21 43.64283 -121.49340 26927 ft 407 kts 173°
2026-04-21 00:21 43.61755 -121.48764 26926 ft 406 kts 174°
2026-04-21 00:21 43.59177 -121.48180 26920 ft 408 kts 173°
2026-04-21 00:21 43.56625 -121.47600 26926 ft 407 kts 173°
2026-04-21 00:22 43.54066 -121.47021 26922 ft 407 kts 174°
2026-04-21 00:22 43.51510 -121.46441 26924 ft 408 kts 173°
2026-04-21 00:22 43.48968 -121.45868 26927 ft 408 kts 173°
2026-04-21 00:22 43.46402 -121.45287 26920 ft 408 kts 173°
2026-04-21 00:23 43.43897 -121.44722 26928 ft 406 kts 174°
2026-04-21 00:23 43.41340 -121.44144 26925 ft 406 kts 174°
2026-04-21 00:23 43.38813 -121.43577 26925 ft 406 kts 173°
2026-04-21 00:23 43.36277 -121.43003 26928 ft 407 kts 174°
2026-04-21 00:24 43.33772 -121.42442 26932 ft 407 kts 173°
2026-04-21 00:24 43.31252 -121.41874 26932 ft 407 kts 174°
2026-04-21 00:24 43.28762 -121.41312 26924 ft 405 kts 173°
2026-04-21 00:24 43.26241 -121.40749 26926 ft 404 kts 173°
2026-04-21 00:25 43.23725 -121.40183 26930 ft 407 kts 174°
2026-04-21 00:25 43.21189 -121.39618 26935 ft 406 kts 174°
2026-04-21 00:25 43.18687 -121.39055 26922 ft 406 kts 174°
2026-04-21 00:25 43.16162 -121.38490 26924 ft 407 kts 174°
2026-04-21 00:26 43.13632 -121.37925 26931 ft 407 kts 173°
2026-04-21 00:26 43.11151 -121.37369 26931 ft 407 kts 174°
2026-04-21 00:26 43.08689 -121.36822 26928 ft 407 kts 174°
2026-04-21 00:26 43.06237 -121.36274 26927 ft 407 kts 173°
2026-04-21 00:27 43.03734 -121.35719 26928 ft 406 kts 173°
2026-04-21 00:27 43.01289 -121.35170 26924 ft 406 kts 174°
2026-04-21 00:27 42.98825 -121.34626 26925 ft 406 kts 174°
2026-04-21 00:27 42.96341 -121.34071 26922 ft 406 kts 174°
2026-04-21 00:28 42.93806 -121.33510 26921 ft 406 kts 174°
2026-04-21 00:28 42.91321 -121.32957 26922 ft 405 kts 174°
2026-04-21 00:28 42.88805 -121.32401 26929 ft 405 kts 174°
2026-04-21 00:28 42.86268 -121.31839 26942 ft 406 kts 174°
2026-04-21 00:29 42.83733 -121.31277 26938 ft 406 kts 174°
2026-04-21 00:29 42.81213 -121.30720 26936 ft 407 kts 174°
2026-04-21 00:29 42.78706 -121.30164 26942 ft 406 kts 174°
2026-04-21 00:29 42.76187 -121.29610 26937 ft 406 kts 174°
2026-04-21 00:30 42.73704 -121.29060 26935 ft 406 kts 174°
2026-04-21 00:30 42.71260 -121.28523 26937 ft 405 kts 174°
2026-04-21 00:30 42.68780 -121.27978 26937 ft 407 kts 174°
2026-04-21 00:30 42.66330 -121.27436 26937 ft 407 kts 174°
2026-04-21 00:31 42.63860 -121.26896 26938 ft 407 kts 174°
2026-04-21 00:31 42.61332 -121.26339 26935 ft 407 kts 174°
2026-04-21 00:31 42.58825 -121.25788 26936 ft 406 kts 174°
2026-04-21 00:31 42.56289 -121.25234 26928 ft 406 kts 174°
2026-04-21 00:32 42.53739 -121.24674 26931 ft 405 kts 174°
2026-04-21 00:32 42.51209 -121.24120 26929 ft 406 kts 174°
2026-04-21 00:32 42.48660 -121.23560 26926 ft 406 kts 174°
2026-04-21 00:32 42.46129 -121.23009 26929 ft 405 kts 174°
2026-04-21 00:33 42.43599 -121.22453 26926 ft 407 kts 174°
2026-04-21 00:33 42.41130 -121.21916 26930 ft 405 kts 174°
2026-04-21 00:33 42.38609 -121.21368 26931 ft 406 kts 174°
2026-04-21 00:33 42.36080 -121.20815 26931 ft 406 kts 174°
2026-04-21 00:34 42.33557 -121.20265 26925 ft 406 kts 174°
2026-04-21 00:34 42.31033 -121.19717 26931 ft 406 kts 174°
2026-04-21 00:34 42.28483 -121.19162 26924 ft 405 kts 174°
2026-04-21 00:34 42.25968 -121.18614 26925 ft 407 kts 174°
2026-04-21 00:35 42.23441 -121.18067 26930 ft 406 kts 174°
2026-04-21 00:35 42.20900 -121.17516 26925 ft 406 kts 174°
2026-04-21 00:35 42.18341 -121.16963 26926 ft 406 kts 174°
2026-04-21 00:35 42.15812 -121.16413 26926 ft 405 kts 174°
2026-04-21 00:36 42.13303 -121.15872 26926 ft 405 kts 174°
2026-04-21 00:36 42.10763 -121.15322 26922 ft 406 kts 174°
2026-04-21 00:36 42.08225 -121.14774 26921 ft 405 kts 174°
2026-04-21 00:36 42.05712 -121.14230 26923 ft 405 kts 174°
2026-04-21 00:37 42.02523 -121.13543 26924 ft 406 kts 174°
2026-04-21 00:37 41.86370 -121.10074 26912 ft 407 kts 174°
2026-04-21 00:37 41.70926 -121.06776 26965 ft 406 kts 174°
2026-04-21 00:37 41.55624 -121.03515 26955 ft 407 kts 174°
2026-04-21 00:38 41.40574 -121.00341 26933 ft 407 kts 174°
2026-04-21 00:38 41.25421 -120.97132 26931 ft 407 kts 174°
2026-04-21 00:38 41.09979 -120.93881 26913 ft 406 kts 174°
2026-04-21 00:38 40.94718 -120.90788 26865 ft 405 kts 176°
2026-04-21 00:39 40.79325 -120.90766 26912 ft 402 kts 183°
2026-04-21 00:39 40.72224 -120.90344 26954 ft 409 kts 171°
2026-04-21 00:39 40.69728 -120.89717 26962 ft 407 kts 175°
2026-04-21 00:39 40.67192 -120.89342 26932 ft 407 kts 177°
2026-04-21 00:40 40.64719 -120.89063 26942 ft 406 kts 178°
2026-04-21 00:40 40.62247 -120.88832 26967 ft 406 kts 178°
2026-04-21 00:40 40.59795 -120.88621 26941 ft 405 kts 179°
2026-04-21 00:40 40.57325 -120.88417 26935 ft 405 kts 179°
2026-04-21 00:41 40.54867 -120.88222 26942 ft 405 kts 179°
2026-04-21 00:41 40.52421 -120.88024 26947 ft 406 kts 178°
2026-04-21 00:41 40.49927 -120.87825 26945 ft 406 kts 178°
2026-04-21 00:41 40.47477 -120.87630 26952 ft 406 kts 179°
2026-04-21 00:42 40.45017 -120.87437 26943 ft 407 kts 179°
2026-04-21 00:42 40.42597 -120.87243 26941 ft 406 kts 179°
2026-04-21 00:42 40.40120 -120.87049 26942 ft 407 kts 179°
2026-04-21 00:42 40.37641 -120.86853 26940 ft 408 kts 179°
2026-04-21 00:43 40.35159 -120.86658 26948 ft 406 kts 179°
2026-04-21 00:43 40.32660 -120.86461 26939 ft 407 kts 179°
2026-04-21 00:43 40.30152 -120.86265 26950 ft 408 kts 179°
2026-04-21 00:43 40.27647 -120.86064 26946 ft 409 kts 179°
2026-04-21 00:44 40.25157 -120.85870 26941 ft 407 kts 179°
2026-04-21 00:44 40.22681 -120.85677 26949 ft 407 kts 179°
2026-04-21 00:44 40.20161 -120.85479 26953 ft 407 kts 179°
2026-04-21 00:45 40.15180 -120.85088 26941 ft 407 kts 179°
2026-04-21 00:45 40.12706 -120.84895 26951 ft 407 kts 179°
2026-04-21 00:45 40.10213 -120.84696 26956 ft 409 kts 179°
2026-04-21 00:45 40.07760 -120.84506 26951 ft 410 kts 179°
2026-04-21 00:46 40.05254 -120.84309 26926 ft 409 kts 179°
2026-04-21 00:46 40.02747 -120.84116 26942 ft 407 kts 179°
2026-04-21 00:46 40.00282 -120.83922 26948 ft 407 kts 178°
2026-04-21 00:46 39.97775 -120.83723 26953 ft 407 kts 179°
2026-04-21 00:47 39.95327 -120.83535 26958 ft 409 kts 179°
2026-04-21 00:47 39.92798 -120.83337 26946 ft 409 kts 179°
2026-04-21 00:47 39.90307 -120.83144 26949 ft 409 kts 179°
2026-04-21 00:47 39.87826 -120.82951 26965 ft 409 kts 179°
2026-04-21 00:48 39.85345 -120.82759 26968 ft 409 kts 178°
2026-04-21 00:48 39.82838 -120.82564 26957 ft 409 kts 179°
2026-04-21 00:48 39.80323 -120.82368 26964 ft 409 kts 179°
2026-04-21 00:48 39.77823 -120.82173 26954 ft 409 kts 179°
2026-04-21 00:49 39.75335 -120.81981 26959 ft 408 kts 179°
2026-04-21 00:49 39.72856 -120.81788 26953 ft 408 kts 179°
2026-04-21 00:49 39.70350 -120.81596 26961 ft 408 kts 179°
2026-04-21 00:49 39.67921 -120.81407 26957 ft 409 kts 179°
2026-04-21 00:50 39.65435 -120.81215 26956 ft 408 kts 179°
2026-04-21 00:50 39.55747 -120.80461 26958 ft 409 kts 179°
2026-04-21 00:50 39.40606 -120.79305 26981 ft 410 kts 179°
2026-04-21 00:50 39.25400 -120.78156 26959 ft 410 kts 179°
2026-04-21 00:51 39.10405 -120.76997 26943 ft 411 kts 179°
2026-04-21 00:51 38.95131 -120.75844 26900 ft 412 kts 179°
2026-04-21 00:51 38.79904 -120.74673 26942 ft 411 kts 179°
2026-04-21 00:51 38.74186 -120.74259 26962 ft 411 kts 179°
2026-04-21 00:52 38.71785 -120.74078 26887 ft 412 kts 179°
2026-04-21 00:52 38.69360 -120.73893 27003 ft 408 kts 179°
2026-04-21 00:52 38.66910 -120.73708 26953 ft 412 kts 180°
2026-04-21 00:52 38.64472 -120.73526 26930 ft 412 kts 179°
2026-04-21 00:53 38.62072 -120.73346 26954 ft 411 kts 179°
2026-04-21 00:53 38.59639 -120.73164 26947 ft 411 kts 179°
2026-04-21 00:53 38.57205 -120.72982 26941 ft 410 kts 179°
2026-04-21 00:53 38.54737 -120.72796 26945 ft 411 kts 179°
2026-04-21 00:54 38.52335 -120.72617 26939 ft 411 kts 179°
2026-04-21 00:54 38.49886 -120.72433 26934 ft 412 kts 179°
2026-04-21 00:54 38.47428 -120.72251 26935 ft 411 kts 179°
2026-04-21 00:54 38.44984 -120.72066 26934 ft 412 kts 179°
2026-04-21 00:55 38.42531 -120.71883 26931 ft 410 kts 179°
2026-04-21 00:55 38.40029 -120.71697 26923 ft 411 kts 180°
2026-04-21 00:55 38.37565 -120.71514 26929 ft 411 kts 179°
2026-04-21 00:55 38.35035 -120.71328 26929 ft 412 kts 179°
2026-04-21 00:56 38.32567 -120.71142 26925 ft 412 kts 179°
2026-04-21 00:56 38.30076 -120.70956 26930 ft 410 kts 179°
2026-04-21 00:56 38.27615 -120.70771 26921 ft 410 kts 179°
2026-04-21 00:56 38.25114 -120.70588 26929 ft 411 kts 180°
2026-04-21 00:57 38.22608 -120.70399 26931 ft 412 kts 179°
2026-04-21 00:57 38.20151 -120.70219 26924 ft 411 kts 179°
2026-04-21 00:57 38.14998 -120.69840 26947 ft 412 kts 179°
2026-04-21 00:57 37.99308 -120.68680 26919 ft 413 kts 180°
2026-04-21 00:58 37.83520 -120.67509 26891 ft 411 kts 179°
2026-04-21 00:58 37.67876 -120.66361 26953 ft 413 kts 180°
2026-04-21 00:58 37.52161 -120.65219 26896 ft 414 kts 179°
2026-04-21 00:58 37.41392 -120.64442 26877 ft 416 kts 180°
2026-04-21 00:59 37.38466 -120.64230 26881 ft 415 kts 180°
2026-04-21 00:59 37.35578 -120.64017 26882 ft 416 kts 180°
2026-04-21 00:59 37.32641 -120.63717 26863 ft 419 kts 174°
2026-04-21 00:59 37.29807 -120.62812 26884 ft 422 kts 169°
2026-04-21 01:00 37.26901 -120.61852 26880 ft 423 kts 169°
2026-04-21 01:00 37.24095 -120.60931 26870 ft 423 kts 170°
2026-04-21 01:00 37.21212 -120.59994 26877 ft 422 kts 169°
2026-04-21 01:00 37.18354 -120.59064 26872 ft 422 kts 169°
2026-04-21 01:01 37.15445 -120.58118 26873 ft 422 kts 169°
2026-04-21 01:01 37.12593 -120.57194 26867 ft 423 kts 170°
2026-04-21 01:01 37.09729 -120.56265 26873 ft 422 kts 170°
2026-04-21 01:01 37.06836 -120.55328 26862 ft 423 kts 169°
2026-04-21 01:02 37.03968 -120.54401 26864 ft 423 kts 169°
2026-04-21 01:02 37.01104 -120.53474 26868 ft 423 kts 169°
2026-04-21 01:02 36.98184 -120.52532 26864 ft 425 kts 169°
2026-04-21 01:02 36.95259 -120.51588 26870 ft 425 kts 169°
2026-04-21 01:03 36.92344 -120.50648 26870 ft 431 kts 170°
2026-04-21 01:03 36.89317 -120.49674 26876 ft 435 kts 169°
2026-04-21 01:03 36.86351 -120.48719 26891 ft 439 kts 169°
2026-04-21 01:03 36.83317 -120.47741 26887 ft 443 kts 169°
2026-04-21 01:04 36.80271 -120.46764 26898 ft 446 kts 169°
2026-04-21 01:04 36.77232 -120.45785 26883 ft 449 kts 169°
2026-04-21 01:04 36.74176 -120.44804 26893 ft 451 kts 169°
2026-04-21 01:04 36.71059 -120.43806 26874 ft 449 kts 169°
2026-04-21 01:05 36.68003 -120.42825 26831 ft 446 kts 169°
2026-04-21 01:05 36.65000 -120.41863 26966 ft 442 kts 169°
2026-04-21 01:05 36.61989 -120.40900 26907 ft 445 kts 169°
2026-04-21 01:05 36.58967 -120.39934 26882 ft 443 kts 169°
2026-04-21 01:06 36.56000 -120.38985 26912 ft 442 kts 169°
2026-04-21 01:06 36.52976 -120.38021 26920 ft 445 kts 169°
2026-04-21 01:06 36.49908 -120.37044 26920 ft 445 kts 169°
2026-04-21 01:06 36.46799 -120.36052 26912 ft 444 kts 169°
2026-04-21 01:07 36.43690 -120.35062 26921 ft 446 kts 169°
2026-04-21 01:07 36.40626 -120.34089 26917 ft 446 kts 170°
2026-04-21 01:07 36.37533 -120.33103 26911 ft 446 kts 170°
2026-04-21 01:07 36.34448 -120.32124 26913 ft 446 kts 170°
2026-04-21 01:08 36.31386 -120.31153 26907 ft 447 kts 169°
2026-04-21 01:08 36.28287 -120.30170 26915 ft 446 kts 169°
2026-04-21 01:08 36.25211 -120.29196 26910 ft 447 kts 169°
2026-04-21 01:08 36.22084 -120.28207 26916 ft 448 kts 170°
2026-04-21 01:09 36.18976 -120.27222 26923 ft 448 kts 169°
2026-04-21 01:09 36.15827 -120.26228 26922 ft 448 kts 170°
2026-04-21 01:09 36.12702 -120.25242 26920 ft 448 kts 169°
2026-04-21 01:09 36.09659 -120.24281 26923 ft 449 kts 169°
2026-04-21 01:10 36.06545 -120.23299 26932 ft 450 kts 169°
2026-04-21 01:10 36.03436 -120.22321 26928 ft 449 kts 169°
2026-04-21 01:10 36.00332 -120.21344 26924 ft 449 kts 169°
2026-04-21 01:10 35.97288 -120.20385 26932 ft 449 kts 169°
2026-04-21 01:11 35.94176 -120.19407 26931 ft 450 kts 169°
2026-04-21 01:11 35.91112 -120.18446 26936 ft 450 kts 169°
2026-04-21 01:11 35.88035 -120.17482 26942 ft 451 kts 169°
2026-04-21 01:11 35.84959 -120.16517 26946 ft 451 kts 169°
2026-04-21 01:12 35.81818 -120.15532 26940 ft 451 kts 169°
2026-04-21 01:12 35.78759 -120.14574 26942 ft 452 kts 169°
2026-04-21 01:12 35.75602 -120.13587 26945 ft 451 kts 169°
2026-04-21 01:12 35.72332 -120.12566 26949 ft 451 kts 169°
2026-04-21 01:13 35.69128 -120.11566 26952 ft 452 kts 169°
2026-04-21 01:13 35.65887 -120.10272 26930 ft 458 kts 159°
2026-04-21 01:13 35.62915 -120.08067 26969 ft 462 kts 152°
2026-04-21 01:13 35.60059 -120.05865 26967 ft 465 kts 153°
2026-04-21 01:14 35.57220 -120.03707 26952 ft 465 kts 153°
2026-04-21 01:14 35.54338 -120.01532 26968 ft 463 kts 153°
2026-04-21 01:14 35.51550 -119.99431 26970 ft 464 kts 153°
2026-04-21 01:14 35.48682 -119.97274 26975 ft 465 kts 153°
2026-04-21 01:15 35.45800 -119.95107 26975 ft 465 kts 153°
2026-04-21 01:15 35.42861 -119.92901 26970 ft 464 kts 153°
2026-04-21 01:15 35.37480 -119.88867 26990 ft 465 kts 153°
2026-04-21 01:15 35.30562 -119.83682 26989 ft 465 kts 153°
2026-04-21 01:16 35.27817 -119.81468 26979 ft 467 kts 147°
2026-04-21 01:16 35.18143 -119.72380 25863 ft 457 kts 148°
2026-04-21 01:16 35.09674 -119.64488 25433 ft 449 kts 147°
2026-04-21 01:16 35.05042 -119.60182 26360 ft 445 kts 147°
2026-04-21 01:17 35.00353 -119.55830 25812 ft 458 kts 147°
2026-04-21 01:17 34.94429 -119.50330 25791 ft 456 kts 147°
2026-04-21 01:17 34.84398 -119.41206 24678 ft 446 kts 149°
2026-04-21 01:17 34.82005 -119.39098 24049 ft 443 kts 148°
2026-04-21 01:18 34.79619 -119.36977 23488 ft 437 kts 148°
2026-04-21 01:18 34.77334 -119.34937 23565 ft 414 kts 148°
2026-04-21 01:18 34.75225 -119.33052 23284 ft 397 kts 149°
2026-04-21 01:18 34.73156 -119.31240 22908 ft 390 kts 149°
2026-04-21 01:19 34.69336 -119.27904 22050 ft 386 kts 149°
2026-04-21 01:19 34.67339 -119.26159 21617 ft 382 kts 149°
2026-04-21 01:19 34.65400 -119.24467 21138 ft 380 kts 149°
2026-04-21 01:19 34.63431 -119.22763 20653 ft 378 kts 149°
2026-04-21 01:20 34.61482 -119.21083 20210 ft 375 kts 149°
2026-04-21 01:20 34.59565 -119.19430 19729 ft 373 kts 149°
2026-04-21 01:20 34.57629 -119.17761 19286 ft 370 kts 149°
2026-04-21 01:20 34.55697 -119.16083 18854 ft 367 kts 149°
2026-04-21 01:21 34.53844 -119.14437 18386 ft 365 kts 149°
2026-04-21 01:21 34.51981 -119.12789 17905 ft 364 kts 149°
2026-04-21 01:21 34.50109 -119.11133 17482 ft 362 kts 148°
2026-04-21 01:21 34.48289 -119.09525 17089 ft 359 kts 149°
2026-04-21 01:22 34.46423 -119.07900 16657 ft 357 kts 149°
2026-04-21 01:22 34.44611 -119.06355 16234 ft 355 kts 149°
2026-04-21 01:22 34.42781 -119.04829 15803 ft 353 kts 150°
2026-04-21 01:22 34.40946 -119.03334 15433 ft 350 kts 150°
2026-04-21 01:23 34.39090 -119.01856 15115 ft 341 kts 151°
2026-04-21 01:23 34.37312 -119.00463 15022 ft 316 kts 152°
2026-04-21 01:23 34.35638 -118.99171 14942 ft 293 kts 152°
2026-04-21 01:23 34.34114 -118.97834 14534 ft 289 kts 141°
2026-04-21 01:24 34.32818 -118.96276 13979 ft 288 kts 139°
2026-04-21 01:24 34.31569 -118.94751 13484 ft 284 kts 139°
2026-04-21 01:24 34.30319 -118.93228 12976 ft 282 kts 139°
2026-04-21 01:24 34.29129 -118.91786 12437 ft 281 kts 139°
2026-04-21 01:25 34.27954 -118.90371 11925 ft 279 kts 139°
2026-04-21 01:25 34.26744 -118.88923 11404 ft 278 kts 138°
2026-04-21 01:25 34.25444 -118.87513 10862 ft 273 kts 149°
2026-04-21 01:25 34.23985 -118.86422 10328 ft 271 kts 150°
2026-04-21 01:26 34.22525 -118.85342 9970 ft 277 kts 151°
2026-04-21 01:26 34.21043 -118.84281 10082 ft 279 kts 151°
2026-04-21 01:26 34.17801 -118.81992 9976 ft 279 kts 152°
2026-04-21 01:26 34.16363 -118.80921 9957 ft 272 kts 143°
2026-04-21 01:27 34.15120 -118.79581 10022 ft 272 kts 139°
2026-04-21 01:27 34.13898 -118.78247 10027 ft 272 kts 140°
2026-04-21 01:27 34.12668 -118.76909 9995 ft 272 kts 140°
2026-04-21 01:27 34.11460 -118.75595 10001 ft 271 kts 140°
2026-04-21 01:28 34.10272 -118.74303 9983 ft 271 kts 140°
2026-04-21 01:28 34.07958 -118.71790 9888 ft 267 kts 140°
2026-04-21 01:28 34.06882 -118.70624 9544 ft 267 kts 140°
2026-04-21 01:28 34.05810 -118.69460 9007 ft 270 kts 140°
2026-04-21 01:29 34.03829 -118.67289 8231 ft 268 kts 134°
2026-04-21 01:29 34.02966 -118.65717 7768 ft 270 kts 112°
2026-04-21 01:29 34.02640 -118.63769 7277 ft 272 kts 94°
2026-04-21 01:29 34.02520 -118.61803 6896 ft 270 kts 98°
2026-04-21 01:30 34.02350 -118.59929 6847 ft 257 kts 97°
2026-04-21 01:30 34.02158 -118.57839 6181 ft 264 kts 98°
2026-04-21 01:30 34.01964 -118.55775 5633 ft 264 kts 97°
2026-04-21 01:30 34.01782 -118.53825 5177 ft 263 kts 97°
2026-04-21 01:31 34.01601 -118.51907 4964 ft 260 kts 97°
2026-04-21 01:31 34.01424 -118.50024 5051 ft 260 kts 97°
2026-04-21 01:31 34.01244 -118.48120 4996 ft 262 kts 97°
2026-04-21 01:31 34.01075 -118.46262 4998 ft 262 kts 94°
2026-04-21 01:32 34.01214 -118.44411 5012 ft 264 kts 77°
2026-04-21 01:32 34.01562 -118.42570 5022 ft 264 kts 79°
2026-04-21 01:32 34.01878 -118.40723 4968 ft 256 kts 79°
2026-04-21 01:32 34.02178 -118.38990 4846 ft 239 kts 79°
2026-04-21 01:33 34.02459 -118.37353 4503 ft 232 kts 79°
2026-04-21 01:33 34.02730 -118.35747 4042 ft 232 kts 81°
2026-04-21 01:33 34.02898 -118.34148 3614 ft 230 kts 84°
2026-04-21 01:33 34.03050 -118.32592 3196 ft 229 kts 83°
2026-04-21 01:34 34.03217 -118.30959 2979 ft 230 kts 83°
2026-04-21 01:34 34.03381 -118.29362 3042 ft 228 kts 83°
2026-04-21 01:34 34.03576 -118.27653 3003 ft 229 kts 83°
2026-04-21 01:34 34.03702 -118.26528 2991 ft 225 kts 83°
2026-04-21 01:35 34.03916 -118.24614 3034 ft 216 kts 83°
2026-04-21 01:35 34.04090 -118.23066 2959 ft 216 kts 83°
2026-04-21 01:35 34.04264 -118.21523 3026 ft 214 kts 83°
2026-04-21 01:35 34.04433 -118.20010 3000 ft 208 kts 83°
2026-04-21 01:36 34.04599 -118.18542 2791 ft 198 kts 83°
2026-04-21 01:36 34.04756 -118.17145 2626 ft 186 kts 83°
2026-04-21 01:36 34.04653 -118.15789 2598 ft 192 kts 115°
2026-04-21 01:36 34.03948 -118.14717 2709 ft 192 kts 146°
2026-04-21 01:37 34.02903 -118.14218 2616 ft 191 kts 172°
2026-04-21 01:37 34.01779 -118.14001 2622 ft 189 kts 173°
2026-04-21 01:37 34.00691 -118.13799 2604 ft 188 kts 173°
2026-04-21 01:37 33.99587 -118.13595 2601 ft 188 kts 173°
2026-04-21 01:38 33.98445 -118.13451 2576 ft 188 kts 187°
2026-04-21 01:38 33.97377 -118.13961 2590 ft 185 kts 222°
2026-04-21 01:38 33.96696 -118.14910 2656 ft 184 kts 232°
2026-04-21 01:38 33.96021 -118.15943 2573 ft 175 kts 232°
2026-04-21 01:39 33.95513 -118.17046 2509 ft 167 kts 260°
2026-04-21 01:39 33.95413 -118.18155 2707 ft 164 kts 273°
2026-04-21 01:39 33.95454 -118.19276 2615 ft 167 kts 270°
2026-04-21 01:39 33.95435 -118.20381 2585 ft 165 kts 266°
2026-04-21 01:40 33.95378 -118.21482 2612 ft 165 kts 265°
2026-04-21 01:40 33.95301 -118.22575 2600 ft 166 kts 264°
2026-04-21 01:40 33.95205 -118.23725 2429 ft 168 kts 263°
2026-04-21 01:40 33.95100 -118.24863 2253 ft 165 kts 263°
2026-04-21 01:41 33.94996 -118.25945 2089 ft 164 kts 262°
2026-04-21 01:41 33.94884 -118.27065 1918 ft 163 kts 262°
2026-04-21 01:41 33.94770 -118.28202 1717 ft 155 kts 262°
2026-04-21 01:41 33.94664 -118.29244 1543 ft 151 kts 261°
2026-04-21 01:42 33.94556 -118.30288 1379 ft 148 kts 261°
2026-04-21 01:42 33.94451 -118.31300 1232 ft 146 kts 261°
2026-04-21 01:42 33.94356 -118.32232 1089 ft 146 kts 262°
2026-04-21 01:42 33.94267 -118.33116 958 ft 145 kts 262°
2026-04-21 01:43 33.94185 -118.33920 835 ft 144 kts 262°
2026-04-21 01:43 33.94064 -118.35091 650 ft 143 kts 262°
2026-04-21 01:43 33.93982 -118.35886 525 ft 143 kts 262°
2026-04-21 01:43 33.93896 -118.36724 392 ft 142 kts 263°
2026-04-21 01:44 33.93794 -118.37766 199 ft 139 kts 263°
2026-04-21 01:44 33.93729 -118.38380 160 ft 140 kts 266°
2026-04-21 01:44 33.93622 -118.39286 143 ft 141 kts 262°
2026-04-21 01:44 33.93531 -118.40313 483 ft 148 kts 262°
2026-04-21 01:45 33.93308 -118.42252 869 ft 182 kts 261°
2026-04-21 01:45 33.93148 -118.43563 1336 ft 181 kts 261°
2026-04-21 01:45 33.92995 -118.44860 1993 ft 171 kts 262°
2026-04-21 01:45 33.92857 -118.46152 2445 ft 171 kts 262°
2026-04-21 01:46 33.92708 -118.47533 2558 ft 194 kts 262°
2026-04-21 01:46 33.92541 -118.49061 2819 ft 196 kts 262°
2026-04-21 01:46 33.92352 -118.50767 3089 ft 199 kts 262°
2026-04-21 01:46 33.92159 -118.52476 3372 ft 201 kts 262°
2026-04-21 01:47 33.91970 -118.54195 3679 ft 201 kts 262°
2026-04-21 01:47 33.91787 -118.55926 3979 ft 202 kts 262°
2026-04-21 01:47 33.91605 -118.57687 4269 ft 203 kts 262°
2026-04-21 01:47 33.91425 -118.59447 4547 ft 205 kts 262°
2026-04-21 01:48 33.91251 -118.61195 4831 ft 206 kts 262°
2026-04-21 01:48 33.90859 -118.62839 4979 ft 204 kts 238°
2026-04-21 01:48 33.89859 -118.63957 4975 ft 201 kts 204°
2026-04-21 01:48 33.88512 -118.64168 5015 ft 202 kts 170°
2026-04-21 01:49 33.87266 -118.63377 5006 ft 206 kts 135°
2026-04-21 01:49 33.86645 -118.61972 5009 ft 209 kts 103°
2026-04-21 01:49 33.86666 -118.60483 5027 ft 210 kts 83°
2026-04-21 01:49 33.86864 -118.58901 5020 ft 212 kts 85°
2026-04-21 01:50 33.86580 -118.57166 4977 ft 207 kts 121°
2026-04-21 01:50 33.85838 -118.55607 5052 ft 208 kts 122°
2026-04-21 01:50 33.85075 -118.54050 4995 ft 207 kts 122°
2026-04-21 01:50 33.84321 -118.52502 5012 ft 206 kts 122°
2026-04-21 01:51 33.83575 -118.50979 5011 ft 206 kts 122°
2026-04-21 01:51 33.82819 -118.49431 5013 ft 206 kts 122°
2026-04-21 01:51 33.82060 -118.47879 5013 ft 206 kts 122°
2026-04-21 01:51 33.81389 -118.46381 4984 ft 208 kts 110°
2026-04-21 01:52 33.81290 -118.44846 5003 ft 208 kts 83°
2026-04-21 01:52 33.81731 -118.41764 4999 ft 210 kts 82°
2026-04-21 01:52 33.81946 -118.40278 5010 ft 209 kts 82°
2026-04-21 01:53 33.82167 -118.38769 5012 ft 209 kts 82°
2026-04-21 01:53 33.82379 -118.37310 5009 ft 210 kts 81°
2026-04-21 01:53 33.82594 -118.35815 5010 ft 210 kts 81°
2026-04-21 01:53 33.82807 -118.34345 5012 ft 210 kts 81°
2026-04-21 01:54 33.83024 -118.32862 5009 ft 210 kts 81°
2026-04-21 01:54 33.83238 -118.31390 5012 ft 210 kts 82°
2026-04-21 01:54 33.83453 -118.29896 5008 ft 210 kts 82°
2026-04-21 01:54 33.83666 -118.28416 5004 ft 210 kts 82°
2026-04-21 01:55 33.83878 -118.26959 5005 ft 210 kts 81°
2026-04-21 01:55 33.84095 -118.25466 5002 ft 210 kts 81°
2026-04-21 01:55 33.84312 -118.23986 4998 ft 210 kts 81°
2026-04-21 01:55 33.84529 -118.22505 4997 ft 210 kts 82°
2026-04-21 01:56 33.84754 -118.20999 4974 ft 209 kts 81°
2026-04-21 01:56 33.84965 -118.19572 5022 ft 210 kts 81°
2026-04-21 01:56 33.85182 -118.18116 5008 ft 210 kts 81°
2026-04-21 01:56 33.85399 -118.16658 5007 ft 210 kts 81°
2026-04-21 01:57 33.85617 -118.15189 5009 ft 209 kts 81°
2026-04-21 01:57 33.85840 -118.13729 5002 ft 210 kts 80°
2026-04-21 01:57 33.86388 -118.12377 4967 ft 212 kts 50°
2026-04-21 01:57 33.87288 -118.11243 5046 ft 213 kts 46°
2026-04-21 01:58 33.88202 -118.10136 4995 ft 214 kts 46°
2026-04-21 01:58 33.89126 -118.09014 4997 ft 212 kts 46°
2026-04-21 01:58 33.90052 -118.07893 5003 ft 212 kts 46°
2026-04-21 01:58 33.90956 -118.06798 5000 ft 212 kts 46°
2026-04-21 01:59 33.91927 -118.05798 4857 ft 207 kts 30°
2026-04-21 01:59 33.93202 -118.05407 4373 ft 210 kts 357°
2026-04-21 01:59 33.94432 -118.05877 4025 ft 200 kts 323°
2026-04-21 01:59 33.95196 -118.06948 3698 ft 190 kts 293°
2026-04-21 02:00 33.95671 -118.08240 3338 ft 185 kts 292°
2026-04-21 02:00 33.95910 -118.09569 3003 ft 186 kts 270°
2026-04-21 02:00 33.95927 -118.10892 3039 ft 182 kts 271°
2026-04-21 02:00 33.95951 -118.12199 3007 ft 182 kts 270°
2026-04-21 02:01 33.95963 -118.13490 2984 ft 184 kts 270°
2026-04-21 02:01 33.95975 -118.14824 2951 ft 182 kts 269°
2026-04-21 02:01 33.95945 -118.16063 2975 ft 183 kts 264°
2026-04-21 02:01 33.95842 -118.17229 3016 ft 183 kts 263°
2026-04-21 02:02 33.95725 -118.18502 3051 ft 185 kts 264°
2026-04-21 02:02 33.95612 -118.19743 2984 ft 184 kts 263°
2026-04-21 02:02 33.95488 -118.20979 2878 ft 183 kts 263°
2026-04-21 02:02 33.95366 -118.22201 2617 ft 177 kts 262°
2026-04-21 02:03 33.95251 -118.23349 2469 ft 169 kts 263°
2026-04-21 02:03 33.95137 -118.24483 2363 ft 162 kts 262°
2026-04-21 02:03 33.94826 -118.27585 1864 ft 163 kts 262°
2026-04-21 02:03 33.94708 -118.28738 1674 ft 162 kts 262°
2026-04-21 02:04 33.94594 -118.29848 1495 ft 161 kts 262°
2026-04-21 02:04 33.94484 -118.30926 1319 ft 160 kts 262°
2026-04-21 02:04 33.94461 -118.31158 1281 ft 159 kts 262°
2026-04-21 02:04 33.94445 -118.31310 1256 ft 159 kts 262°
2026-04-21 02:05 33.94342 -118.32323 1076 ft 159 kts 262°
2026-04-21 02:05 33.94338 -118.32365 1069 ft 159 kts 262°
2026-04-21 02:05 33.94293 -118.32810 1017 ft 157 kts 262°
2026-04-21 02:06 33.94197 -118.33761 865 ft 157 kts 262°
2026-04-21 02:06 33.94100 -118.34710 716 ft 156 kts 262°
2026-04-21 02:06 33.94013 -118.35628 536 ft 147 kts 263°
2026-04-21 02:06 33.93926 -118.36509 341 ft 143 kts 263°
2026-04-21 02:07 33.93839 -118.37366 240 ft 135 kts 262°
2026-04-21 02:07 33.93753 -118.38174 157 ft 138 kts 261°
2026-04-21 02:07 33.93659 -118.39020 110 ft 133 kts 263°
2026-04-21 02:07 33.93588 -118.39700 115 ft 71 kts 265°
2026-04-21 02:08 33.93572 -118.40183 124 ft 61 kts 282°
2026-04-21 02:08 33.93625 -118.40421 126 ft 23 kts 269°
2026-04-21 02:08 33.93613 -118.40587 129 ft 20 kts 263°
2026-04-21 02:08 33.93599 -118.40720 129 ft 4 kts 263°
2026-04-21 02:09 33.93595 -118.40769 129 ft 11 kts 270°
2026-04-21 02:09 33.93599 -118.40807 130 ft 3 kts 281°
2026-04-21 02:09 33.93604 -118.40829 131 ft 3 kts 287°
2026-04-21 02:09 33.93665 -118.40896 131 ft 23 kts 351°
2026-04-21 02:10 33.93772 -118.40936 131 ft 16 kts 294°
2026-04-21 02:10 33.93772 -118.41053 131 ft 15 kts 266°
2026-04-21 02:10 33.93798 -118.41151 131 ft 14 kts 339°
2026-04-21 02:10 33.93886 -118.41166 130 ft 16 kts 353°
2026-04-21 02:11 33.93972 -118.41177 128 ft 5 kts 353°
2026-04-21 02:11 33.94009 -118.41168 127 ft 8 kts 38°
2026-04-21 02:11 33.94018 -118.41114 129 ft 9 kts 84°
2026-04-21 02:11 33.94022 -118.41072 129 ft 0 kts 84°